STARLINK-36617, 67634

Orbit data source: Space-Track

STARLINK-36617, 67634 is a payload satellite owned by SpaceX/Seattle (US) in LEO that was launched on Fri, 30 Jan 2026 UTC via an FALCON 9 launch vehicle from the Air Force Eastern Test Range (AFETR). Payload-class satellites include a variety of spacecraft equipped with specific instruments for various scientific and technological missions. These include communications satellites like Starlink; space stations such as the ISS; scientific satellites like the Hubble; Earth observation satellites from companies like Planet Labs, Umbra, and HawkEye 360; GPS; miniature CubeSats for education and research; and military/defense satellites.

Loading next visibility...
Identifier
67634, 2026-020T
Orbit
LEO
Country
Flag of USUS
Related business
Manufacturer
SpaceX/Seattle
Mission
Operational Commercial Communications
Bus & Motor
STARLINK V2MO, Unknown motor
Mass
575 kg wet, ~530 kg dry
Launch date (UTC)
2026-01-30 (5 months ago)
Launch vehicle
FALCON 9
Launch site
Air Force Eastern Test Range (AFETR)
Object type
Payload
Rocket body
Debris
Shape & HBR
Box + 2 Pan, 17.7 m
Radar Cross Section
36.964 m², Large (>1 m²)

Expand to show TLE details & history
Last TLE update: 1 day ago

TLE from 1 day ago
0 STARLINK-36617
1 67634U 26020T   26170.59636799  .00015432  00000-0  56895-3 0  9997
2 67634  43.0018 284.7233 0001192 270.7136  89.3579 15.27591821 21692
Epoch: 2026-06-19T14:18Z
TLE epoch observation values (Epoch: 2026-06-19T14:18:46.194Z)
Latitude
-0.00002°
Longitude
162.20773°
Altitude
482.78 km
Speed
7.626 km/s
True Right ascension
18h 58m 53s
True Declination
0° 00' 00"
Sunlit
Object was in full shadow at epoch
Visualization orbit readout
Latitude
Unknown
Longitude
Unknown
Altitude
Unknown
Speed
Unknown
Apparent Right ascension
Unknown
Apparent Declination
Unknown
Sunlit
N/A
Visualization observer readout
Local Sidereal Time
07:22:01
Azimuth
Unknown
Elevation
Unknown
Doppler factor
Unknown
Orbital elements
Apogee altitude
485.777 km
Perigee altitude
484.141 km
Semi-major axis
6,863.096 km
Eccentricity
0.00012
Inclination
43.0018°
RAAN
284.7233°
Arg. of periapsis
270.7136°
True anomaly
89.37156°
Mean anomaly
89.3579°
Eccentric anomaly
89.36473°
Mean motion
3.81736 °/min
Orbital period
94.31 mins
BSTAR
0.00056895
Loading maneuver chart data...
Computing Atmospheric mass density...
Loading historical data...
Loading historical data...
Loading historical data...
Loading historical data...
Loading historical data...
Loading historical data...
Loading historical data...

Documentation

Showing up to 5 results
|